Retour au catalogue

STARLINK-11493

ActifCommunicationsVLEO
NORAD 62410·PAYLOAD·🇺🇸 United States

Lancé Dec 23, 2024 depuis Cape Canaveral Space Force Station

Loading…

Prochains Passages (prochaines 24 heures)

TLE

FraisSource: CelesTrak SupGP

Époque: Sep 14, 2026, 22:22 UTC

1 62410C 24249B   26257.93243056 -.00015664  00000+0 -12170-3 0  2572
2 62410  43.0004 107.3506 0001555 278.6490 285.5563 15.70838580    10

Suivez STARLINK-11493 en temps réel avec AllMySat

Download on the App Store